User: anonymous   Login
Location: Unspecified
(0.0000°N, 0.0000°E)
Time: 06:55:12
(UTC+00:00)
Language:

ONEWEB-0678 - Orbit

View from above orbital plane
View from above orbital plane
View from above satellite
View from above satellite

Ground track
Ground track

The orbit is defined by the following mean orbital elements,

1 56714U          26145.57095218 +.00000000 +00000-0 +21373-5 0 00002
2 56714  87.9000 263.6982 0001741  92.8082 267.3248 13.15547266    09
Epoch (UTC): 25 May 2026 13:42:10
Eccentricity: 0.0001741
inclination: 87.9000°
perigee height: 1200 km
apogee height: 1203 km
right ascension of ascending node: 263.6982°
argument of perigee: 92.8082°
revolutions per day: 13.15547266
mean anomaly at epoch: 267.3248°

The dashed part of the orbit path shows where the satellite is in the earth's shadow,  

DLR